Location: Niedergestelen
(46.3129°N, 7.7822°E)
Time: 18:30:22
(UTC+00:00)

Meteor 2-6 Rocket - Visible Passes

Search period start: 16 April 2021 00:00
Search period end: 26 April 2021 00:00
Orbit: 805 x 915 km, 81.3° (Epoch: 15 April)

Date Brightness Start Highest point End Pass type
(mag) Time Alt. Az. Time Alt. Az. Time Alt. Az.
16 Apr 4.9 00:15:44 49° NNE 00:15:44 49° NNE 00:19:40 10° NNE visible
16 Apr 6.0 01:57:56 16° WNW 01:58:03 16° WNW 02:01:24 10° NNW visible
17 Apr 4.9 00:06:34 49° NNE 00:06:34 49° NNE 00:10:30 10° NNE visible
17 Apr 6.0 01:48:47 17° WNW 01:48:52 17° WNW 01:52:16 10° NNW visible
17 Apr 4.9 23:57:24 48° NNE 23:57:24 48° NNE 00:01:19 10° NNE visible
18 Apr 6.0 01:39:36 17° WNW 01:39:41 17° WNW 01:43:09 10° NNW visible
18 Apr 4.9 23:48:14 48° NNE 23:48:14 48° NNE 23:52:09 10° NNE visible
19 Apr 6.0 01:30:26 17° WNW 01:30:30 17° WNW 01:34:03 10° NNW visible
19 Apr 4.9 23:39:02 48° NNE 23:39:02 48° NNE 23:42:59 10° NNE visible
20 Apr 6.0 01:21:14 18° WNW 01:21:19 18° WNW 01:24:56 10° NNW visible
20 Apr 4.8 23:29:50 48° NE 23:29:50 48° NE 23:33:48 10° NNE visible
21 Apr 5.9 01:12:02 18° WNW 01:12:08 18° WNW 01:15:49 10° NNW visible
21 Apr 4.8 23:20:37 49° NE 23:20:37 49° NE 23:24:38 10° NNE visible
22 Apr 5.9 01:02:49 19° WNW 01:02:57 19° WNW 01:06:41 10° NNW visible
22 Apr 4.8 23:11:23 49° NE 23:11:23 49° NE 23:15:28 10° NNE visible
23 Apr 5.9 00:53:35 19° WNW 00:53:46 19° WNW 00:57:34 10° NNW visible
23 Apr 4.7 23:02:08 50° NE 23:02:08 50° NE 23:06:18 10° NNE visible
24 Apr 5.9 00:44:20 19° WNW 00:44:35 20° WNW 00:48:27 10° NNW visible
24 Apr 4.7 22:52:53 50° NE 22:52:53 50° NE 22:57:07 10° NNE visible
25 Apr 5.9 00:35:05 20° WNW 00:35:25 20° WNW 00:39:20 10° NNW visible
25 Apr 4.6 22:43:37 51° NE 22:43:37 51° NE 22:47:57 10° NNE visible
